Time,TemperatureF,DewpointF,PressureIn,WindDirection,WindDirectionDegrees,WindSpeedMPH,WindSpeedGustMPH,Humidity,HourlyPrecipIn,Conditions,Clouds,dailyrainin,SoftwareType,DateUTC
2013-01-22 00:05:00,27.3,18.1,29.74,North,0,0.0,0.0,82,-99.99,,,-99.99,PWS SA v1.10,2013-01-22 05:05:00,
2013-01-22 00:10:00,27.4,18.1,29.73,North,0,0.0,0.0,81,-99.99,,,-99.99,PWS SA v1.10,2013-01-22 05:10:00,
2013-01-22 00:15:00,27.5,18.2,29.73,North,0,0.0,0.0,82,-99.99,,,-99.99,PWS SA v1.10,2013-01-22 05:15:00,
2013-01-22 00:20:00,27.5,18.2,29.72,North,0,0.0,0.0,82,-99.99,,,-99.99,PWS SA v1.10,2013-01-22 05:20:00,
2013-01-22 00:25:00,27.4,18.3,29.71,North,0,0.0,0.0,82,-99.99,,,-99.99,PWS SA v1.10,2013-01-22 05:25:00,
2013-01-22 00:30:00,27.5,18.3,29.71,North,0,0.0,0.0,82,-99.99,,,-99.99,PWS SA v1.10,2013-01-22 05:30:00,
2013-01-22 00:35:00,27.5,18.3,29.71,North,0,0.0,0.0,82,-99.99,,,-99.99,PWS SA v1.10,2013-01-22 05:35:00,
2013-01-22 00:40:00,27.4,18.3,29.71,North,0,0.0,0.0,82,-99.99,,,-99.99,PWS SA v1.10,2013-01-22 05:40:00,
2013-01-22 00:45:00,27.5,18.3,29.71,North,0,0.0,0.0,82,-99.99,,,-99.99,PWS SA v1.10,2013-01-22 05:45:00,
2013-01-22 00:50:00,27.6,18.5,29.71,North,0,0.0,0.0,82,-99.99,,,-99.99,PWS SA v1.10,2013-01-22 05:50:00,
2013-01-22 00:55:00,27.7,18.5,29.71,North,0,0.0,0.0,82,-99.99,,,-99.99,PWS SA v1.10,2013-01-22 05:55:00,
2013-01-22 01:00:00,27.6,18.4,29.70,North,0,0.0,0.0,82,-99.99,,,-99.99,PWS SA v1.10,2013-01-22 06:00:00,
2013-01-22 01:05:00,27.6,18.4,29.71,North,0,0.0,0.0,82,-99.99,,,-99.99,PWS SA v1.10,2013-01-22 06:05:00,
2013-01-22 01:10:00,27.6,22.6,29.71,North,0,0.0,0.0,81,-99.99,,,-99.99,PWS SA v1.10,2013-01-22 06:10:00,
2013-01-22 01:15:00,27.6,18.3,29.72,North,0,0.0,0.0,81,-99.99,,,-99.99,PWS SA v1.10,2013-01-22 06:15:00,
2013-01-22 01:20:00,27.7,18.5,29.73,North,0,0.0,0.0,82,-99.99,,,-99.99,PWS SA v1.10,2013-01-22 06:20:00,
2013-01-22 01:25:00,27.7,18.3,29.73,North,0,0.0,1.0,81,-99.99,,,-99.99,PWS SA v1.10,2013-01-22 06:25:00,
2013-01-22 01:30:00,27.7,18.5,29.72,North,0,0.0,1.0,82,-99.99,,,-99.99,PWS SA v1.10,2013-01-22 06:30:00,
2013-01-22 01:35:00,27.5,18.1,29.72,North,0,0.0,1.0,81,-99.99,,,-99.99,PWS SA v1.10,2013-01-22 06:35:00,
2013-01-22 01:40:00,27.3,18.2,29.73,North,0,0.0,0.0,82,-99.99,,,-99.99,PWS SA v1.10,2013-01-22 06:40:00,
2013-01-22 01:45:00,27.3,18.1,29.73,North,0,0.0,0.0,82,-99.99,,,-99.99,PWS SA v1.10,2013-01-22 06:45:00,
2013-01-22 01:50:00,27.2,18.0,29.73,North,0,0.0,0.0,82,-99.99,,,-99.99,PWS SA v1.10,2013-01-22 06:50:00,
2013-01-22 02:00:00,27.0,18.1,29.72,North,0,0.0,1.0,83,-99.99,,,-99.99,PWS SA v1.10,2013-01-22 07:00:00,
2013-01-22 02:05:00,27.4,18.4,29.72,North,0,0.0,1.0,82,-99.99,,,-99.99,PWS SA v1.10,2013-01-22 07:05:00,
2013-01-22 02:10:00,27.4,18.3,29.73,North,0,0.0,1.0,82,-99.99,,,-99.99,PWS SA v1.10,2013-01-22 07:10:00,
2013-01-22 02:15:00,27.4,18.2,29.73,North,0,0.0,1.0,82,-99.99,,,-99.99,PWS SA v1.10,2013-01-22 07:15:00,
2013-01-22 02:20:00,27.4,18.2,29.73,North,0,0.0,1.0,82,-99.99,,,-99.99,PWS SA v1.10,2013-01-22 07:20:00,
2013-01-22 02:25:00,27.2,18.2,29.73,North,0,0.0,1.0,83,-99.99,,,-99.99,PWS SA v1.10,2013-01-22 07:25:00,
2013-01-22 02:30:00,27.2,18.0,29.73,North,0,0.0,1.0,82,-99.99,,,-99.99,PWS SA v1.10,2013-01-22 07:30:00,
2013-01-22 02:35:00,27.0,18.1,29.73,North,0,0.0,1.0,83,-99.99,,,-99.99,PWS SA v1.10,2013-01-22 07:35:00,
2013-01-22 02:40:00,27.0,17.8,29.73,North,0,0.0,0.0,82,-99.99,,,-99.99,PWS SA v1.10,2013-01-22 07:40:00,
2013-01-22 02:45:00,27.4,18.2,29.72,North,0,0.0,0.0,82,-99.99,,,-99.99,PWS SA v1.10,2013-01-22 07:45:00,
2013-01-22 02:50:00,27.3,18.0,29.71,North,0,0.0,0.0,81,-99.99,,,-99.99,PWS SA v1.10,2013-01-22 07:50:00,
2013-01-22 02:55:00,27.2,17.6,29.71,North,0,0.0,0.0,81,-99.99,,,-99.99,PWS SA v1.10,2013-01-22 07:55:00,
2013-01-22 03:00:00,27.1,17.5,29.71,North,0,0.0,0.0,81,-99.99,,,-99.99,PWS SA v1.10,2013-01-22 08:00:00,
2013-01-22 03:05:00,26.8,17.3,29.71,North,0,0.0,0.0,81,-99.99,,,-99.99,PWS SA v1.10,2013-01-22 08:05:00,
2013-01-22 03:10:00,26.6,16.8,29.72,North,0,0.0,0.0,80,-99.99,,,-99.99,PWS SA v1.10,2013-01-22 08:10:00,
2013-01-22 03:20:00,25.8,16.1,29.71,North,0,0.0,0.0,80,-99.99,,,-99.99,PWS SA v1.10,2013-01-22 08:20:00,
2013-01-22 03:25:00,25.3,15.7,29.71,North,0,0.0,0.0,80,-99.99,,,-99.99,PWS SA v1.10,2013-01-22 08:25:00,
2013-01-22 03:35:00,24.8,15.5,29.70,North,0,0.0,0.0,81,-99.99,,,-99.99,PWS SA v1.10,2013-01-22 08:35:00,
2013-01-22 03:40:00,24.5,15.2,29.71,North,0,0.0,0.0,81,-99.99,,,-99.99,PWS SA v1.10,2013-01-22 08:40:00,
2013-01-22 03:45:00,24.2,15.2,29.71,North,0,0.0,0.0,82,-99.99,,,-99.99,PWS SA v1.10,2013-01-22 08:45:00,
2013-01-22 03:55:00,24.0,15.1,29.71,North,0,0.0,0.0,82,-99.99,,,-99.99,PWS SA v1.10,2013-01-22 08:55:00,
2013-01-22 04:05:00,23.7,15.0,29.71,North,0,0.0,0.0,83,-99.99,,,-99.99,PWS SA v1.10,2013-01-22 09:05:00,
2013-01-22 04:10:00,23.5,14.6,29.71,North,0,0.0,0.0,83,-99.99,,,-99.99,PWS SA v1.10,2013-01-22 09:10:00,
2013-01-22 04:15:00,23.5,14.7,29.70,North,0,0.0,0.0,83,-99.99,,,-99.99,PWS SA v1.10,2013-01-22 09:15:00,
2013-01-22 04:25:00,22.8,13.9,29.70,North,0,0.0,0.0,83,-99.99,,,-99.99,PWS SA v1.10,2013-01-22 09:25:00,
2013-01-22 04:30:00,22.8,14.1,29.71,North,0,0.0,0.0,83,-99.99,,,-99.99,PWS SA v1.10,2013-01-22 09:30:00,
2013-01-22 04:40:00,22.8,14.3,29.72,North,0,0.0,0.0,84,-99.99,,,-99.99,PWS SA v1.10,2013-01-22 09:40:00,
2013-01-22 04:45:00,22.8,14.2,29.71,North,0,0.0,0.0,84,-99.99,,,-99.99,PWS SA v1.10,2013-01-22 09:45:00,
2013-01-22 04:50:00,22.8,14.4,29.71,North,0,0.0,0.0,84,-99.99,,,-99.99,PWS SA v1.10,2013-01-22 09:50:00,
2013-01-22 05:00:00,23.0,14.8,29.71,North,0,0.0,0.0,85,-99.99,,,-99.99,PWS SA v1.10,2013-01-22 10:00:00,
2013-01-22 05:05:00,23.2,15.0,29.71,North,0,0.0,0.0,85,-99.99,,,-99.99,PWS SA v1.10,2013-01-22 10:05:00,
2013-01-22 05:10:00,23.3,15.2,29.71,North,0,0.0,0.0,85,-99.99,,,-99.99,PWS SA v1.10,2013-01-22 10:10:00,
2013-01-22 05:15:00,23.6,15.4,29.71,North,0,0.0,0.0,85,-99.99,,,-99.99,PWS SA v1.10,2013-01-22 10:15:00,
2013-01-22 05:20:00,23.7,15.4,29.72,North,0,0.0,0.0,85,-99.99,,,-99.99,PWS SA v1.10,2013-01-22 10:20:00,
2013-01-22 05:25:00,23.6,15.4,29.72,North,0,0.0,0.0,85,-99.99,,,-99.99,PWS SA v1.10,2013-01-22 10:25:00,
2013-01-22 05:30:00,23.6,15.4,29.71,North,0,0.0,0.0,85,-99.99,,,-99.99,PWS SA v1.10,2013-01-22 10:30:00,
2013-01-22 05:35:00,23.9,15.8,29.72,North,0,0.0,0.0,85,-99.99,,,-99.99,PWS SA v1.10,2013-01-22 10:35:00,
2013-01-22 05:40:00,24.0,16.1,29.72,North,0,0.0,0.0,86,-99.99,,,-99.99,PWS SA v1.10,2013-01-22 10:40:00,
2013-01-22 05:45:00,23.9,15.6,29.72,North,0,0.0,0.0,85,-99.99,,,-99.99,PWS SA v1.10,2013-01-22 10:45:00,
2013-01-22 05:50:00,23.9,15.6,29.73,North,0,0.0,0.0,85,-99.99,,,-99.99,PWS SA v1.10,2013-01-22 10:50:00,
2013-01-22 05:55:00,23.9,15.6,29.73,North,0,0.0,0.0,85,-99.99,,,-99.99,PWS SA v1.10,2013-01-22 10:55:00,
2013-01-22 06:00:00,23.5,15.5,29.73,North,0,0.0,0.0,86,-99.99,,,-99.99,PWS SA v1.10,2013-01-22 11:00:00,
2013-01-22 06:05:00,23.5,15.3,29.72,West,269,1.7,1.7,85,-99.99,,,-99.99,PWS SA v1.10,2013-01-22 11:05:00,
2013-01-22 06:10:00,23.2,15.1,29.73,North,0,0.0,1.0,85,-99.99,,,-99.99,PWS SA v1.10,2013-01-22 11:10:00,
2013-01-22 06:15:00,23.4,15.3,29.73,North,0,0.0,1.0,86,-99.99,,,-99.99,PWS SA v1.10,2013-01-22 11:15:00,
2013-01-22 06:20:00,23.6,15.2,29.73,North,0,0.0,0.0,84,-99.99,,,-99.99,PWS SA v1.10,2013-01-22 11:20:00,
2013-01-22 06:25:00,22.9,14.4,29.73,North,0,0.0,1.0,84,-99.99,,,-99.99,PWS SA v1.10,2013-01-22 11:25:00,
2013-01-22 06:30:00,23.2,14.7,29.74,NW,326,3.4,3.4,84,-99.99,,,-99.99,PWS SA v1.10,2013-01-22 11:30:00,
2013-01-22 06:35:00,23.1,14.3,29.74,North,0,0.0,3.0,83,-99.99,,,-99.99,PWS SA v1.10,2013-01-22 11:35:00,
2013-01-22 06:40:00,23.1,14.2,29.74,North,0,0.0,3.0,83,-99.99,,,-99.99,PWS SA v1.10,2013-01-22 11:40:00,
2013-01-22 06:45:00,22.7,13.7,29.75,North,0,0.0,3.0,82,-99.99,,,-99.99,PWS SA v1.10,2013-01-22 11:45:00,
2013-01-22 06:50:00,22.8,13.7,29.74,North,0,0.0,3.0,82,-99.99,,,-99.99,PWS SA v1.10,2013-01-22 11:50:00,
2013-01-22 06:55:00,22.5,13.2,29.75,North,0,0.0,3.0,81,-99.99,,,-99.99,PWS SA v1.10,2013-01-22 11:55:00,
2013-01-22 07:00:00,22.7,13.4,29.75,North,0,0.0,3.0,81,-99.99,,,-99.99,PWS SA v1.10,2013-01-22 12:00:00,
2013-01-22 07:05:00,22.5,12.8,29.75,West,270,3.4,6.0,80,-99.99,,,-99.99,PWS SA v1.10,2013-01-22 12:05:00,
2013-01-22 07:10:00,22.6,12.5,29.75,North,0,0.0,6.0,78,-99.99,,,-99.99,PWS SA v1.10,2013-01-22 12:10:00,
2013-01-22 07:15:00,22.6,12.5,29.76,NNW,328,1.7,6.0,78,-99.99,,,-99.99,PWS SA v1.10,2013-01-22 12:15:00,
2013-01-22 07:20:00,22.4,12.3,29.76,West,281,1.7,5.0,78,-99.99,,,-99.99,PWS SA v1.10,2013-01-22 12:20:00,
2013-01-22 07:25:00,22.6,12.2,29.76,North,0,0.0,3.0,77,-99.99,,,-99.99,PWS SA v1.10,2013-01-22 12:25:00,
2013-01-22 07:30:00,22.5,11.9,29.76,North,0,0.0,6.0,76,-99.99,,,-99.99,PWS SA v1.10,2013-01-22 12:30:00,
2013-01-22 07:35:00,22.6,11.8,29.77,North,0,0.0,6.0,76,-99.99,,,-99.99,PWS SA v1.10,2013-01-22 12:35:00,
2013-01-22 07:40:00,22.2,10.9,29.76,West,276,1.7,6.0,74,-99.99,,,-99.99,PWS SA v1.10,2013-01-22 12:40:00,
2013-01-22 07:45:00,21.9,10.3,29.76,West,273,1.7,8.0,73,-99.99,,,-99.99,PWS SA v1.10,2013-01-22 12:45:00,
2013-01-22 07:50:00,21.8,10.7,29.77,North,358,3.4,8.0,75,-99.99,,,-99.99,PWS SA v1.10,2013-01-22 12:50:00,
2013-01-22 07:55:00,21.9,10.1,29.77,SE,143,1.7,8.0,73,-99.99,,,-99.99,PWS SA v1.10,2013-01-22 12:55:00,
2013-01-22 08:00:00,21.8,10.4,29.77,NW,323,3.4,8.0,74,-99.99,,,-99.99,PWS SA v1.10,2013-01-22 13:00:00,
2013-01-22 08:05:00,21.7,9.9,29.78,SW,230,3.4,8.0,73,-99.99,,,-99.99,PWS SA v1.10,2013-01-22 13:05:00,
2013-01-22 08:10:00,21.9,10.3,29.78,NE,52,1.7,3.0,73,-99.99,,,-99.99,PWS SA v1.10,2013-01-22 13:10:00,
2013-01-22 08:20:00,21.7,9.6,29.78,North,0,0.0,6.0,72,-99.99,,,-99.99,PWS SA v1.10,2013-01-22 13:20:00,
2013-01-22 08:25:00,21.5,9.1,29.78,North,0,0.0,8.0,70,-99.99,,,-99.99,PWS SA v1.10,2013-01-22 13:25:00,
2013-01-22 08:35:00,22.3,9.9,29.79,NNW,343,1.7,13.0,71,-99.99,,,-99.99,PWS SA v1.10,2013-01-22 13:35:00,
2013-01-22 08:40:00,22.1,9.1,29.79,North,0,0.0,13.0,69,-99.99,,,-99.99,PWS SA v1.10,2013-01-22 13:40:00,
2013-01-22 08:45:00,22.2,9.1,29.79,SSW,212,6.8,13.0,69,-99.99,,,-99.99,PWS SA v1.10,2013-01-22 13:45:00,
2013-01-22 08:50:00,22.8,9.8,29.79,North,0,0.0,12.0,69,-99.99,,,-99.99,PWS SA v1.10,2013-01-22 13:50:00,
2013-01-22 09:00:00,22.7,9.2,29.79,North,0,0.0,12.0,67,-99.99,,,-99.99,PWS SA v1.10,2013-01-22 14:00:00,
2013-01-22 09:05:00,22.7,8.7,29.80,North,0,0.0,12.0,66,-99.99,,,-99.99,PWS SA v1.10,2013-01-22 14:05:00,
2013-01-22 09:10:00,22.2,8.2,29.80,WSW,247,1.7,8.0,66,-99.99,,,-99.99,PWS SA v1.10,2013-01-22 14:10:00,
2013-01-22 09:20:00,22.6,8.4,29.80,West,264,3.4,8.0,65,-99.99,,,-99.99,PWS SA v1.10,2013-01-22 14:20:00,
2013-01-22 09:25:00,23.2,8.7,29.80,WNW,291,3.4,8.0,64,-99.99,,,-99.99,PWS SA v1.10,2013-01-22 14:25:00,
2013-01-22 09:35:00,23.4,7.9,29.81,NNW,341,3.4,6.0,62,-99.99,,,-99.99,PWS SA v1.10,2013-01-22 14:35:00,
2013-01-22 09:40:00,23.2,7.6,29.80,NNW,335,5.1,6.0,61,-99.99,,,-99.99,PWS SA v1.10,2013-01-22 14:40:00,
2013-01-22 09:45:00,24.0,8.0,29.81,North,0,0.0,6.0,60,-99.99,,,-99.99,PWS SA v1.10,2013-01-22 14:45:00,
2013-01-22 09:50:00,23.9,8.4,29.81,SW,234,8.5,8.5,62,-99.99,,,-99.99,PWS SA v1.10,2013-01-22 14:50:00,
2013-01-22 09:55:00,23.9,8.0,29.82,NW,318,1.7,8.0,61,-99.99,,,-99.99,PWS SA v1.10,2013-01-22 14:55:00,
2013-01-22 10:00:00,23.5,7.1,29.82,NE,43,1.7,8.0,59,-99.99,,,-99.99,PWS SA v1.10,2013-01-22 15:00:00,
2013-01-22 10:10:00,24.4,7.2,29.82,WSW,258,5.1,6.0,57,-99.99,,,-99.99,PWS SA v1.10,2013-01-22 15:10:00,
2013-01-22 10:15:00,24.2,7.0,29.82,NW,304,5.1,6.0,57,-99.99,,,-99.99,PWS SA v1.10,2013-01-22 15:15:00,
2013-01-22 10:20:00,24.4,6.9,29.81,NW,321,8.5,8.5,57,-99.99,,,-99.99,PWS SA v1.10,2013-01-22 15:20:00,
2013-01-22 10:25:00,25.1,7.4,29.82,North,0,0.0,8.0,56,-99.99,,,-99.99,PWS SA v1.10,2013-01-22 15:25:00,
2013-01-22 10:30:00,24.1,5.5,29.82,NW,326,8.5,12.0,54,-99.99,,,-99.99,PWS SA v1.10,2013-01-22 15:30:00,
2013-01-22 10:35:00,24.3,5.7,29.82,NW,326,3.4,12.0,54,-99.99,,,-99.99,PWS SA v1.10,2013-01-22 15:35:00,
2013-01-22 10:40:00,24.2,5.4,29.82,North,349,6.8,12.0,53,-99.99,,,-99.99,PWS SA v1.10,2013-01-22 15:40:00,
2013-01-22 10:45:00,25.0,6.5,29.82,NW,325,3.4,10.0,54,-99.99,,,-99.99,PWS SA v1.10,2013-01-22 15:45:00,
2013-01-22 10:55:00,26.2,7.1,29.82,North,0,0.0,3.0,53,-99.99,,,-99.99,PWS SA v1.10,2013-01-22 15:55:00,
2013-01-22 11:00:00,25.1,5.5,29.81,NNE,24,6.8,8.0,51,-99.99,,,-99.99,PWS SA v1.10,2013-01-22 16:00:00,
2013-01-22 11:05:00,24.9,5.8,29.80,WNW,285,3.4,8.0,52,-99.99,,,-99.99,PWS SA v1.10,2013-01-22 16:05:00,
2013-01-22 11:10:00,24.4,4.8,29.81,West,280,3.4,8.0,51,-99.99,,,-99.99,PWS SA v1.10,2013-01-22 16:10:00,
2013-01-22 11:15:00,24.5,4.5,29.81,North,354,5.1,10.0,50,-99.99,,,-99.99,PWS SA v1.10,2013-01-22 16:15:00,
2013-01-22 11:20:00,24.5,5.1,29.82,WSW,237,5.1,17.0,52,-99.99,,,-99.99,PWS SA v1.10,2013-01-22 16:20:00,
2013-01-22 11:25:00,24.4,4.7,29.81,WNW,287,3.4,17.0,51,-99.99,,,-99.99,PWS SA v1.10,2013-01-22 16:25:00,
2013-01-22 11:30:00,24.5,4.7,29.81,North,7,3.4,17.0,51,-99.99,,,-99.99,PWS SA v1.10,2013-01-22 16:30:00,
2013-01-22 11:35:00,25.3,5.4,29.81,North,0,0.0,10.0,51,-99.99,,,-99.99,PWS SA v1.10,2013-01-22 16:35:00,
2013-01-22 11:40:00,24.9,4.9,29.81,NNW,327,1.7,10.0,51,-99.99,,,-99.99,PWS SA v1.10,2013-01-22 16:40:00,
2013-01-22 11:45:00,24.8,5.0,29.81,West,271,3.4,10.0,51,-99.99,,,-99.99,PWS SA v1.10,2013-01-22 16:45:00,
2013-01-22 11:50:00,24.9,3.5,29.82,NW,312,5.1,10.0,47,-99.99,,,-99.99,PWS SA v1.10,2013-01-22 16:50:00,
2013-01-22 11:55:00,25.2,3.9,29.82,WNW,301,1.7,6.0,47,-99.99,,,-99.99,PWS SA v1.10,2013-01-22 16:55:00,
2013-01-22 12:00:00,25.2,3.8,29.81,NNW,333,1.7,8.0,47,-99.99,,,-99.99,PWS SA v1.10,2013-01-22 17:00:00,
2013-01-22 12:05:00,25.6,4.3,29.80,NW,312,5.1,8.0,47,-99.99,,,-99.99,PWS SA v1.10,2013-01-22 17:05:00,
2013-01-22 12:10:00,25.7,4.0,29.80,NW,318,6.8,8.0,47,-99.99,,,-99.99,PWS SA v1.10,2013-01-22 17:10:00,
2013-01-22 12:15:00,26.0,5.0,29.80,North,0,0.0,13.0,48,-99.99,,,-99.99,PWS SA v1.10,2013-01-22 17:15:00,
2013-01-22 12:20:00,24.9,3.2,29.80,WNW,303,1.7,13.0,47,-99.99,,,-99.99,PWS SA v1.10,2013-01-22 17:20:00,
2013-01-22 12:25:00,25.1,3.6,29.80,West,260,6.8,13.0,47,-99.99,,,-99.99,PWS SA v1.10,2013-01-22 17:25:00,
2013-01-22 12:30:00,25.6,4.2,29.80,North,0,0.0,10.0,47,-99.99,,,-99.99,PWS SA v1.10,2013-01-22 17:30:00,
2013-01-22 12:35:00,25.2,2.1,29.80,NNW,336,10.2,10.2,44,-99.99,,,-99.99,PWS SA v1.10,2013-01-22 17:35:00,
2013-01-22 12:40:00,24.9,2.7,29.80,West,277,3.4,10.0,45,-99.99,,,-99.99,PWS SA v1.10,2013-01-22 17:40:00,
2013-01-22 12:50:00,25.5,2.1,29.81,West,267,5.1,10.0,43,-99.99,,,-99.99,PWS SA v1.10,2013-01-22 17:50:00,
2013-01-22 13:00:00,24.4,1.4,29.81,NNW,333,5.1,10.0,44,-99.99,,,-99.99,PWS SA v1.10,2013-01-22 18:00:00,
2013-01-22 13:05:00,24.9,1.6,29.81,NNE,15,1.7,10.0,43,-99.99,,,-99.99,PWS SA v1.10,2013-01-22 18:05:00,
2013-01-22 13:10:00,25.0,1.4,29.80,North,358,5.1,8.0,43,-99.99,,,-99.99,PWS SA v1.10,2013-01-22 18:10:00,
2013-01-22 13:15:00,24.9,1.4,29.81,NNW,335,6.8,10.0,43,-99.99,,,-99.99,PWS SA v1.10,2013-01-22 18:15:00,
2013-01-22 13:20:00,25.3,1.2,29.81,WNW,285,3.4,10.0,42,-99.99,,,-99.99,PWS SA v1.10,2013-01-22 18:20:00,
2013-01-22 13:25:00,25.9,2.2,29.81,North,0,0.0,10.0,43,-99.99,,,-99.99,PWS SA v1.10,2013-01-22 18:25:00,
2013-01-22 13:35:00,25.6,-0.4,29.81,West,261,3.4,20.0,38,-99.99,,,-99.99,PWS SA v1.10,2013-01-22 18:35:00,
2013-01-22 13:45:00,25.5,0.9,29.81,North,0,0.0,20.0,41,-99.99,,,-99.99,PWS SA v1.10,2013-01-22 18:45:00,
2013-01-22 13:50:00,25.2,-0.3,29.81,NNW,336,5.1,13.0,39,-99.99,,,-99.99,PWS SA v1.10,2013-01-22 18:50:00,
2013-01-22 13:55:00,25.4,0.2,29.82,WSW,244,6.8,13.0,40,-99.99,,,-99.99,PWS SA v1.10,2013-01-22 18:55:00,
2013-01-22 14:00:00,25.5,-0.6,29.82,NNE,31,6.8,13.0,38,-99.99,,,-99.99,PWS SA v1.10,2013-01-22 19:00:00,
2013-01-22 14:05:00,25.5,-0.1,29.82,NE,41,1.7,6.0,39,-99.99,,,-99.99,PWS SA v1.10,2013-01-22 19:05:00,
2013-01-22 14:10:00,24.9,-0.4,29.83,North,0,0.0,6.0,39,-99.99,,,-99.99,PWS SA v1.10,2013-01-22 19:10:00,
2013-01-22 14:15:00,25.2,0.1,29.83,North,0,0.0,5.0,40,-99.99,,,-99.99,PWS SA v1.10,2013-01-22 19:15:00,
2013-01-22 14:20:00,25.3,-0.1,29.83,North,0,0.0,6.0,39,-99.99,,,-99.99,PWS SA v1.10,2013-01-22 19:20:00,
2013-01-22 14:25:00,25.5,0.7,29.83,WSW,254,3.4,11.0,40,-99.99,,,-99.99,PWS SA v1.10,2013-01-22 19:25:00,
2013-01-22 14:30:00,26.5,0.7,29.84,North,0,0.0,11.0,39,-99.99,,,-99.99,PWS SA v1.10,2013-01-22 19:30:00,
2013-01-22 14:35:00,26.9,-1.1,29.84,North,0,0.0,11.0,35,-99.99,,,-99.99,PWS SA v1.10,2013-01-22 19:35:00,
2013-01-22 14:45:00,29.0,3.9,29.84,North,0,0.0,6.0,34,-99.99,,,-99.99,PWS SA v1.10,2013-01-22 19:45:00,
2013-01-22 14:50:00,28.8,4.8,29.84,West,272,1.7,6.0,35,-99.99,,,-99.99,PWS SA v1.10,2013-01-22 19:50:00,
2013-01-22 14:55:00,27.6,2.6,29.85,NW,312,6.8,8.0,33,-99.99,,,-99.99,PWS SA v1.10,2013-01-22 19:55:00,
2013-01-22 15:00:00,28.8,4.5,29.85,WSW,254,1.7,8.0,35,-99.99,,,-99.99,PWS SA v1.10,2013-01-22 20:00:00,
2013-01-22 15:10:00,27.3,4.4,29.85,SW,230,5.1,10.0,36,-99.99,,,-99.99,PWS SA v1.10,2013-01-22 20:10:00,
2013-01-22 15:15:00,25.9,-3.2,29.85,NW,311,6.8,10.0,33,-99.99,,,-99.99,PWS SA v1.10,2013-01-22 20:15:00,
2013-01-22 15:20:00,26.0,-0.5,29.85,North,0,0.0,10.0,37,-99.99,,,-99.99,PWS SA v1.10,2013-01-22 20:20:00,
2013-01-22 15:25:00,26.4,-1.2,29.85,ENE,75,1.7,6.0,35,-99.99,,,-99.99,PWS SA v1.10,2013-01-22 20:25:00,
2013-01-22 15:30:00,25.6,-2.0,29.85,North,0,0.0,6.0,35,-99.99,,,-99.99,PWS SA v1.10,2013-01-22 20:30:00,
2013-01-22 15:35:00,25.5,-1.0,29.85,North,0,0.0,8.0,37,-99.99,,,-99.99,PWS SA v1.10,2013-01-22 20:35:00,
2013-01-22 15:45:00,25.5,-1.1,29.86,WSW,251,3.4,8.0,37,-99.99,,,-99.99,PWS SA v1.10,2013-01-22 20:45:00,
2013-01-22 15:55:00,24.6,-1.3,29.87,North,0,0.0,6.0,38,-99.99,,,-99.99,PWS SA v1.10,2013-01-22 20:55:00,
2013-01-22 16:00:00,24.4,-0.4,29.87,North,0,0.0,6.0,40,-99.99,,,-99.99,PWS SA v1.10,2013-01-22 21:00:00,
2013-01-22 16:05:00,23.8,-1.6,29.87,NW,318,5.1,5.1,39,-99.99,,,-99.99,PWS SA v1.10,2013-01-22 21:05:00,
2013-01-22 16:10:00,23.3,-2.4,29.87,SSW,209,1.7,6.0,38,-99.99,,,-99.99,PWS SA v1.10,2013-01-22 21:10:00,
2013-01-22 16:15:00,23.4,-1.6,29.87,North,0,0.0,8.0,40,-99.99,,,-99.99,PWS SA v1.10,2013-01-22 21:15:00,
2013-01-22 16:20:00,23.2,-1.5,29.88,WNW,288,3.4,8.0,40,-99.99,,,-99.99,PWS SA v1.10,2013-01-22 21:20:00,
2013-01-22 16:25:00,23.1,-1.3,29.88,NW,321,3.4,8.0,41,-99.99,,,-99.99,PWS SA v1.10,2013-01-22 21:25:00,
2013-01-22 16:35:00,22.6,-2.8,29.88,NW,318,1.7,5.0,39,-99.99,,,-99.99,PWS SA v1.10,2013-01-22 21:35:00,
2013-01-22 16:40:00,22.9,-1.3,29.89,North,0,0.0,3.0,41,-99.99,,,-99.99,PWS SA v1.10,2013-01-22 21:40:00,
2013-01-22 16:45:00,22.1,-1.9,29.89,WNW,288,1.7,3.0,41,-99.99,,,-99.99,PWS SA v1.10,2013-01-22 21:45:00,
2013-01-22 16:50:00,22.1,-1.9,29.89,West,268,5.1,5.1,41,-99.99,,,-99.99,PWS SA v1.10,2013-01-22 21:50:00,
2013-01-22 16:55:00,21.9,-1.3,29.89,North,0,0.0,6.0,43,-99.99,,,-99.99,PWS SA v1.10,2013-01-22 21:55:00,
2013-01-22 17:00:00,22.5,-1.1,29.89,NNW,332,3.4,6.0,42,-99.99,,,-99.99,PWS SA v1.10,2013-01-22 22:00:00,
2013-01-22 17:10:00,22.1,-1.2,29.90,North,0,0.0,5.0,43,-99.99,,,-99.99,PWS SA v1.10,2013-01-22 22:10:00,
2013-01-22 17:15:00,22.1,-1.0,29.91,NW,317,1.7,3.0,43,-99.99,,,-99.99,PWS SA v1.10,2013-01-22 22:15:00,
2013-01-22 17:25:00,21.4,-2.3,29.91,North,0,0.0,6.0,42,-99.99,,,-99.99,PWS SA v1.10,2013-01-22 22:25:00,
2013-01-22 17:30:00,21.3,-2.1,29.92,NNW,342,6.8,6.8,42,-99.99,,,-99.99,PWS SA v1.10,2013-01-22 22:30:00,
2013-01-22 17:35:00,20.9,-3.3,29.92,WNW,289,10.2,10.2,41,-99.99,,,-99.99,PWS SA v1.10,2013-01-22 22:35:00,
2013-01-22 17:40:00,21.5,-1.3,29.92,NW,306,3.4,10.0,44,-99.99,,,-99.99,PWS SA v1.10,2013-01-22 22:40:00,
2013-01-22 17:50:00,20.8,-2.7,29.93,North,350,3.4,3.4,42,-99.99,,,-99.99,PWS SA v1.10,2013-01-22 22:50:00,
2013-01-22 17:55:00,21.1,-2.3,29.93,North,0,0.0,3.0,42,-99.99,,,-99.99,PWS SA v1.10,2013-01-22 22:55:00,
2013-01-22 18:00:00,21.0,-1.4,29.93,North,0,0.0,3.0,44,-99.99,,,-99.99,PWS SA v1.10,2013-01-22 23:00:00,
2013-01-22 18:05:00,21.0,-0.8,29.93,NW,312,3.4,3.4,46,-99.99,,,-99.99,PWS SA v1.10,2013-01-22 23:05:00,
2013-01-22 18:10:00,21.0,-0.4,29.94,North,0,0.0,6.0,47,-99.99,,,-99.99,PWS SA v1.10,2013-01-22 23:10:00,
2013-01-22 18:15:00,20.6,-1.1,29.94,North,0,0.0,6.0,46,-99.99,,,-99.99,PWS SA v1.10,2013-01-22 23:15:00,
2013-01-22 18:20:00,20.7,-1.2,29.95,North,0,0.0,6.0,45,-99.99,,,-99.99,PWS SA v1.10,2013-01-22 23:20:00,
2013-01-22 18:25:00,20.6,-0.4,29.95,North,353,3.4,6.0,47,-99.99,,,-99.99,PWS SA v1.10,2013-01-22 23:25:00,
2013-01-22 18:30:00,20.5,-0.4,29.94,North,0,0.0,6.0,48,-99.99,,,-99.99,PWS SA v1.10,2013-01-22 23:30:00,
2013-01-22 18:40:00,20.5,0.3,29.95,North,0,0.0,3.0,49,-99.99,,,-99.99,PWS SA v1.10,2013-01-22 23:40:00,
2013-01-22 18:45:00,19.8,-0.4,29.96,WSW,249,5.1,8.0,49,-99.99,,,-99.99,PWS SA v1.10,2013-01-22 23:45:00,
2013-01-22 18:50:00,19.9,-0.5,29.96,NNW,340,6.8,8.0,49,-99.99,,,-99.99,PWS SA v1.10,2013-01-22 23:50:00,
2013-01-22 19:00:00,19.6,-0.3,29.96,North,359,5.1,10.0,50,-99.99,,,-99.99,PWS SA v1.10,2013-01-23 00:00:00,
2013-01-22 19:05:00,19.7,-1.0,29.96,North,0,0.0,10.0,48,-99.99,,,-99.99,PWS SA v1.10,2013-01-23 00:05:00,
2013-01-22 19:15:00,20.1,0.2,29.97,North,0,0.0,1.0,50,-99.99,,,-99.99,PWS SA v1.10,2013-01-23 00:15:00,
2013-01-22 19:20:00,20.0,-0.1,29.97,WSW,254,1.7,1.7,49,-99.99,,,-99.99,PWS SA v1.10,2013-01-23 00:20:00,
2013-01-22 19:25:00,19.6,-0.4,29.97,WSW,258,3.4,5.0,49,-99.99,,,-99.99,PWS SA v1.10,2013-01-23 00:25:00,
2013-01-22 19:30:00,19.1,-1.1,29.97,WSW,247,5.1,6.0,49,-99.99,,,-99.99,PWS SA v1.10,2013-01-23 00:30:00,
2013-01-22 19:35:00,19.2,-2.1,29.97,North,0,0.0,6.0,46,-99.99,,,-99.99,PWS SA v1.10,2013-01-23 00:35:00,
2013-01-22 19:40:00,19.1,-1.8,29.97,North,0,0.0,6.0,47,-99.99,,,-99.99,PWS SA v1.10,2013-01-23 00:40:00,
2013-01-22 19:45:00,19.7,0.0,29.97,North,0,0.0,3.0,50,-99.99,,,-99.99,PWS SA v1.10,2013-01-23 00:45:00,
2013-01-22 19:55:00,19.2,-1.2,29.97,North,0,0.0,5.0,48,-99.99,,,-99.99,PWS SA v1.10,2013-01-23 00:55:00,
2013-01-22 20:00:00,19.2,-1.2,29.98,North,0,0.0,5.0,48,-99.99,,,-99.99,PWS SA v1.10,2013-01-23 01:00:00,
2013-01-22 20:05:00,19.3,-2.0,29.97,North,0,0.0,3.0,46,-99.99,,,-99.99,PWS SA v1.10,2013-01-23 01:05:00,
2013-01-22 20:10:00,19.0,-1.3,29.98,North,0,0.0,1.0,49,-99.99,,,-99.99,PWS SA v1.10,2013-01-23 01:10:00,
2013-01-22 20:15:00,19.2,-0.5,29.98,NW,321,1.7,1.7,50,-99.99,,,-99.99,PWS SA v1.10,2013-01-23 01:15:00,
2013-01-22 20:20:00,18.9,-0.4,29.98,North,0,0.0,3.0,51,-99.99,,,-99.99,PWS SA v1.10,2013-01-23 01:20:00,
2013-01-22 20:25:00,18.8,-1.8,29.98,North,0,0.0,3.0,48,-99.99,,,-99.99,PWS SA v1.10,2013-01-23 01:25:00,
2013-01-22 20:30:00,19.0,-0.6,29.98,North,0,0.0,3.0,50,-99.99,,,-99.99,PWS SA v1.10,2013-01-23 01:30:00,
2013-01-22 20:35:00,18.6,-1.2,29.98,North,0,0.0,1.0,50,-99.99,,,-99.99,PWS SA v1.10,2013-01-23 01:35:00,
2013-01-22 20:40:00,18.1,-2.4,29.99,NNW,347,5.1,6.0,48,-99.99,,,-99.99,PWS SA v1.10,2013-01-23 01:40:00,
2013-01-22 20:45:00,18.2,-2.0,29.99,North,0,0.0,6.0,49,-99.99,,,-99.99,PWS SA v1.10,2013-01-23 01:45:00,
2013-01-22 20:50:00,18.3,-1.3,29.98,NNW,340,3.4,6.0,50,-99.99,,,-99.99,PWS SA v1.10,2013-01-23 01:50:00,
2013-01-22 20:55:00,18.1,-1.5,29.99,North,350,3.4,6.0,50,-99.99,,,-99.99,PWS SA v1.10,2013-01-23 01:55:00,
2013-01-22 21:00:00,18.5,-0.9,29.99,North,0,0.0,6.0,51,-99.99,,,-99.99,PWS SA v1.10,2013-01-23 02:00:00,
2013-01-22 21:05:00,17.8,-1.5,29.99,NW,323,1.7,5.0,51,-99.99,,,-99.99,PWS SA v1.10,2013-01-23 02:05:00,
2013-01-22 21:10:00,18.5,-0.8,29.99,North,0,0.0,5.0,51,-99.99,,,-99.99,PWS SA v1.10,2013-01-23 02:10:00,
2013-01-22 21:15:00,18.2,-0.3,29.99,North,0,0.0,6.0,53,-99.99,,,-99.99,PWS SA v1.10,2013-01-23 02:15:00,
2013-01-22 21:20:00,18.4,-0.4,29.99,North,0,0.0,6.0,52,-99.99,,,-99.99,PWS SA v1.10,2013-01-23 02:20:00,
2013-01-22 21:25:00,18.4,-1.2,29.99,North,0,0.0,6.0,50,-99.99,,,-99.99,PWS SA v1.10,2013-01-23 02:25:00,
2013-01-22 21:35:00,18.5,0.1,29.99,North,0,0.0,1.0,53,-99.99,,,-99.99,PWS SA v1.10,2013-01-23 02:35:00,
2013-01-22 21:40:00,17.2,-1.7,30.00,WNW,290,3.4,3.4,52,-99.99,,,-99.99,PWS SA v1.10,2013-01-23 02:40:00,
2013-01-22 21:45:00,17.7,-1.3,30.00,North,0,0.0,3.0,51,-99.99,,,-99.99,PWS SA v1.10,2013-01-23 02:45:00,
2013-01-22 21:50:00,17.8,0.2,30.01,North,0,0.0,3.0,55,-99.99,,,-99.99,PWS SA v1.10,2013-01-23 02:50:00,
2013-01-22 21:55:00,18.2,0.0,30.01,North,0,0.0,1.0,54,-99.99,,,-99.99,PWS SA v1.10,2013-01-23 02:55:00,
2013-01-22 22:00:00,17.9,-0.7,30.01,North,0,0.0,1.0,53,-99.99,,,-99.99,PWS SA v1.10,2013-01-23 03:00:00,
2013-01-22 22:05:00,17.7,-0.9,30.01,North,0,0.0,1.0,53,-99.99,,,-99.99,PWS SA v1.10,2013-01-23 03:05:00,
2013-01-22 22:10:00,17.5,-0.6,30.01,NW,315,6.8,6.8,54,-99.99,,,-99.99,PWS SA v1.10,2013-01-23 03:10:00,
2013-01-22 22:15:00,17.9,0.2,30.01,North,0,0.0,6.0,55,-99.99,,,-99.99,PWS SA v1.10,2013-01-23 03:15:00,
2013-01-22 22:20:00,17.4,-0.6,30.02,North,0,0.0,6.0,54,-99.99,,,-99.99,PWS SA v1.10,2013-01-23 03:20:00,
2013-01-22 22:25:00,17.8,0.3,30.01,NNW,331,3.4,3.4,55,-99.99,,,-99.99,PWS SA v1.10,2013-01-23 03:25:00,
2013-01-22 22:30:00,17.2,-0.4,30.02,North,0,0.0,8.0,55,-99.99,,,-99.99,PWS SA v1.10,2013-01-23 03:30:00,
2013-01-22 22:40:00,17.3,0.2,30.02,North,0,0.0,8.0,56,-99.99,,,-99.99,PWS SA v1.10,2013-01-23 03:40:00,
2013-01-22 22:45:00,17.6,0.4,30.02,North,0,0.0,3.0,56,-99.99,,,-99.99,PWS SA v1.10,2013-01-23 03:45:00,
2013-01-22 22:50:00,17.9,1.1,30.03,North,0,0.0,3.0,57,-99.99,,,-99.99,PWS SA v1.10,2013-01-23 03:50:00,
2013-01-22 22:55:00,17.8,0.6,30.03,North,0,0.0,3.0,56,-99.99,,,-99.99,PWS SA v1.10,2013-01-23 03:55:00,
2013-01-22 23:00:00,17.4,0.8,30.03,WSW,247,3.4,3.4,58,-99.99,,,-99.99,PWS SA v1.10,2013-01-23 04:00:00,
2013-01-22 23:05:00,17.2,-0.5,30.03,North,0,0.0,3.0,55,-99.99,,,-99.99,PWS SA v1.10,2013-01-23 04:05:00,
2013-01-22 23:10:00,17.5,0.5,30.03,North,0,0.0,3.0,57,-99.99,,,-99.99,PWS SA v1.10,2013-01-23 04:10:00,
2013-01-22 23:15:00,17.4,-0.1,30.03,North,0,0.0,1.0,55,-99.99,,,-99.99,PWS SA v1.10,2013-01-23 04:15:00,
2013-01-22 23:25:00,17.4,0.5,30.03,North,0,0.0,0.0,57,-99.99,,,-99.99,PWS SA v1.10,2013-01-23 04:25:00,
2013-01-22 23:30:00,17.2,-0.4,30.03,North,0,0.0,0.0,55,-99.99,,,-99.99,PWS SA v1.10,2013-01-23 04:30:00,
2013-01-22 23:35:00,17.4,0.0,30.03,North,0,0.0,0.0,55,-99.99,,,-99.99,PWS SA v1.10,2013-01-23 04:35:00,
2013-01-22 23:40:00,17.0,-0.9,30.03,North,0,0.0,3.0,54,-99.99,,,-99.99,PWS SA v1.10,2013-01-23 04:40:00,
2013-01-22 23:45:00,16.7,-1.2,30.02,North,0,0.0,3.0,54,-99.99,,,-99.99,PWS SA v1.10,2013-01-23 04:45:00,
2013-01-22 23:50:00,16.5,-0.5,30.02,WSW,243,1.7,3.0,56,-99.99,,,-99.99,PWS SA v1.10,2013-01-23 04:50:00,